Zurück zum Katalog

CZ-4C R/B

AktivPO
NORAD 39211·ROCKET BODY·🇨🇳 China

Gestartet Jul 19, 2013 von Taiyuan Satellite Launch Center

Loading…

Nächste Überflüge (nächste 24 Stunden)

TLE

AktuellSource: Space-Track

Epoche: Sep 13, 2026, 19:05 UTC

1 39211U 13037D   26256.79539042  .00012434  00000-0  29431-3 0  9996
2 39211  97.9601 188.0706 0060677 323.6573  36.0557 15.40005912724517

Verfolge CZ-4C R/B in Echtzeit mit AllMySat

Download on the App Store